Cloud_Cover
67 78 96 37 0 13 23 91 95 13 0 9 5 4 2 63 100 100 97 100 100 100 100 100 100 100 100 100 100 100 100 100 99 100 74 100 74 100 100 100 100 100 95 100 100 8 84 100 60
63 90 92 80 11 0 2 92 4 76 3 16 0 2 0 4 34 100 100 100 100 100 100 100 100 100 100 100 100 100 100 100 92 100 100 100 100 100 100 100 69 100 93 100 100 43 97 100 100
100 90 80 81 4 0 0 0 0 100 95 1 2 0 0 9 0 20 100 100 100 100 100 100 100 100 100 23 75 100 100 100 99 100 97 100 100 100 100 100 82 35 100 100 95 78 87 87 100
100 100 100 28 28 56 1 0 0 0 1 0 0 0 0 0 0 4 92 100 100 100 100 100 100 100 90 100 100 100 87 100 100 100 98 94 96 100 100 70 5 84 100 84 100 41 57 15 100
100 100 100 40 42 85 29 5 1 0 0 0 0 0 0 0 0 0 1 5 3 100 100 100 100 100 100 100 100 100 90 100 100 100 100 99 100 100 100 95 100 22 40 71 61 65 95 65 50
100 100 100 19 78 11 1 0 0 0 0 0 0 0 0 0 0 0 0 0 2 100 100 100 100 100 100 100 100 100 99 100 100 100 100 100 100 100 64 37 97 44 50 5 7 57 71 6 5
100 100 97 1 0 5 27 0 0 0 0 0 0 0 0 13 5 0 0 0 0 93 100 100 100 100 100 100 100 99 100 100 100 100 100 100 100 96 52 26 100 8 77 5 5 83 100 59 81
100 47 91 0 0 0 0 0 0 0 0 0 0 0 0 2 7 0 47 1 0 25 100 100 100 100 100 100 100 100 100 100 100 100 100 100 98 96 6 17 100 91 61 8 64 96 100 98 100
97 91 14 8 0 0 0 13 11 0 0 0 0 0 0 0 90 58 1 0 0 1 5 94 100 100 100 100 100 100 100 100 100 100 100 95 100 6 85 33 46 87 5 5 30 100 100 49 95
98 86 74 41 2 0 35 100 100 0 0 0 0 0 0 0 100 55 17 0 12 1 6 5 39 99 100 100 100 100 100 100 94 86 50 6 8 12 100 18 39 40 91 83 100 100 100 100 95
17 29 83 69 49 96 87 12 0 0 0 0 0 0 0 0 20 53 64 0 0 0 66 90 98 48 92 100 100 100 100 100 100 66 5 5 5 100 100 94 76 98 100 100 100 100 100 100 95
22 100 100 100 74 72 100 100 89 6 2 66 1 0 0 0 11 44 0 0 0 1 4 92 92 100 6 5 14 96 100 100 100 94 27 100 57 42 7 9 5 57 100 98 100 100 99 88 100
86 100 100 100 100 94 100 67 9 59 5 38 3 0 0 0 0 13 0 0 0 0 10 93 100 98 45 44 20 14 95 46 8 18 100 28 35 55 70 88 47 50 49 65 30 96 100 60 79
4 95 100 100 100 100 100 100 100 78 2 5 92 1 0 2 0 76 13 0 0 0 0 2 30 56 16 100 100 100 94 100 94 21 9 85 100 86 4 31 78 100 100 73 15 6 38 15 28
57 75 100 100 100 100 100 100 100 100 16 3 100 50 0 5 5 1 0 0 0 0 0 0 0 0 5 100 100 100 100 100 100 13 89 1 5 38 0 0 40 50 6 84 84 36 49 99 97
100 100 100 100 96 96 84 99 100 43 30 9 54 3 0 0 5 2 0 0 0 0 0 0 0 0 0 74 100 99 52 98 9 38 1 2 8 35 4 8 51 3 99 47 18 93 80 98 48
80 65 100 88 58 90 100 100 31 1 14 100 0 0 0 0 0 5 0 0 0 0 0 0 0 0 0 10 100 66 63 100 97 56 4 15 0 0 7 45 4 0 24 37 44 1 5 96 99
100 100 100 100 100 100 100 100 75 24 5 56 4 2 0 0 2 0 0 0 0 0 0 0 0 0 0 0 13 7 12 2 0 72 73 68 90 14 0 2 19 3 47 0 3 0 0 0 76
34 86 100 100 88 78 100 77 100 100 100 100 99 97 1 0 0 0 0 0 0 0 0 0 0 0 1 0 1 0 4 5 1 15 5 92 100 100 5 16 55 22 21 0 0 0 0 0 92
97 91 50 100 94 95 45 38 46 100 100 100 70 5 33 0 0 0 0 2 5 0 0 0 4 0 4 0 0 0 0 1 0 72 0 26 8 0 0 4 30 1 0 0 0 0 4 5 5
29 91 80 69 94 100 100 34 0 12 96 73 94 31 44 10 0 0 0 1 5 0 0 0 4 0 0 0 0 0 0 92 87 40 76 10 0 0 1 2 5 1 0 0 0 0 0 5 5
0 77 99 100 9 4 97 66 5 79 34 95 100 100 5 3 6 4 0 0 5 3 0 0 0 0 0 0 0 0 0 0 2 84 99 100 98 8 5 5 4 4 2 1 3 5 0 0 0
0 41 100 100 4 100 100 92 7 50 70 100 100 100 0 0 5 5 0 0 0 5 5 0 0 0 0 0 0 0 0 0 41 100 100 100 100 84 73 58 76 6 5 5 0 0 0 3 0
0 0 4 48 56 9 92 66 33 99 54 58 28 9 0 0 0 0 0 0 0 4 6 10 0 0 0 0 0 0 0 0 57 100 100 100 100 54 100 99 75 5 16 9 27 2 0 0 0
0 0 0 0 0 87 97 90 91 91 28 7 4 2 0 0 0 0 0 0 0 0 0 17 5 0 0 0 0 0 0 0 25 100 100 100 100 100 99 54 20 27 57 43 2 12 5 5 1
0 0 0 0 0 38 85 91 17 100 89 99 1 1 25 0 0 0 0 0 0 0 0 0 5 5 0 0 0 0 0 0 0 17 100 100 100 100 96 22 24 33 95 19 5 0 0 0 5
0 0 0 0 2 93 94 14 4 89 0 27 83 100 60 97 100 15 0 0 0 0 0 0 2 5 5 0 0 0 0 0 0 4 90 100 100 100 15 60 84 5 3 7 5 0 0 0 0
0 0 0 0 0 28 6 0 0 6 1 73 100 100 100 100 100 100 64 0 0 0 0 0 3 5 2 4 5 0 0 0 0 0 1 1 99 85 5 93 97 10 5 1 3 5 60 63 60
0 0 0 0 2 26 0 1 4 32 9 100 39 99 100 100 100 100 97 3 0 0 0 0 3 5 0 3 7 66 0 0 0 4 0 0 41 10 47 40 52 68 51 5 5 5 5 15 17
0 0 0 0 0 18 98 1 0 0 5 100 9 100 100 100 100 100 100 4 50 0 0 0 0 5 5 5 5 0 5 5 0 5 41 18 100 87 100 100 66 43 5 5 5 5 5 2 0